GFSFLT1_prec_precacc24_093.txt.gz
Total_Precipitation_Accumulation
0.00 0.00 0.00 0.00 0.01 0.03 0.11 0.15 0.16 0.15 0.15 0.16 0.28 0.35 0.34 0.26 0.17 0.13 0.14 0.14 0.12 0.18 0.12 0.04 0.02 0.01 0.00 0.00 0.00 0.00 0.00 0.00
0.00 0.00 0.00 0.00 0.01 0.02 0.05 0.12 0.15 0.14 0.16 0.25 0.38 0.39 0.24 0.21 0.21 0.17 0.16 0.20 0.08 0.09 0.09 0.07 0.01 0.01 0.00 0.01 0.01 0.00 0.00 0.00
0.00 0.00 0.00 0.00 0.01 0.02 0.02 0.04 0.06 0.10 0.09 0.17 0.23 0.27 0.21 0.16 0.18 0.23 0.20 0.17 0.08 0.09 0.07 0.05 0.01 0.00 0.00 0.00 0.00 0.00 0.00 0.00
0.00 0.00 0.00 0.00 0.01 0.01 0.01 0.00 0.01 0.07 0.11 0.25 0.32 0.35 0.24 0.19 0.14 0.16 0.20 0.17 0.11 0.06 0.06 0.02 0.01 0.00 0.00 0.00 0.00 0.00 0.00 0.00
0.00 0.00 0.00 0.00 0.00 0.00 0.02 0.01 0.01 0.03 0.06 0.13 0.16 0.15 0.09 0.05 0.02 0.04 0.11 0.14 0.11 0.04 0.02 0.01 0.01 0.00 0.00 0.00 0.01 0.01 0.02 0.03
0.00 0.00 0.00 0.00 0.00 0.00 0.01 0.01 0.01 0.01 0.02 0.06 0.13 0.06 0.02 0.03 0.00 0.00 0.02 0.06 0.05 0.02 0.02 0.01 0.01 0.00 0.01 0.08 0.05 0.04 0.04 0.11
0.00 0.00 0.00 0.00 0.00 0.00 0.00 0.01 0.02 0.01 0.01 0.02 0.05 0.07 0.03 0.02 0.01 0.00 0.00 0.00 0.02 0.01 0.01 0.01 0.04 0.04 0.11 0.16 0.14 0.08 0.11 0.09
0.00 0.00 0.00 0.00 0.00 0.00 0.00 0.01 0.02 0.01 0.01 0.01 0.01 0.03 0.06 0.01 0.00 0.00 0.00 0.00 0.01 0.03 0.05 0.05 0.09 0.18 0.22 0.19 0.16 0.13 0.14 0.16
0.00 0.00 0.00 0.00 0.00 0.00 0.00 0.00 0.01 0.01 0.00 0.01 0.01 0.01 0.01 0.01 0.00 0.00 0.00 0.00 0.00 0.00 0.07 0.12 0.15 0.15 0.18 0.19 0.17 0.16 0.18 0.16
0.00 0.00 0.00 0.00 0.00 0.00 0.00 0.00 0.00 0.00 0.00 0.00 0.01 0.05 0.03 0.01 0.04 0.01 0.01 0.01 0.02 0.01 0.08 0.15 0.19 0.18 0.19 0.23 0.27 0.29 0.31 0.29
0.00 0.00 0.00 0.00 0.00 0.00 0.01 0.02 0.01 0.01 0.00 0.00 0.00 0.02 0.09 0.05 0.06 0.11 0.06 0.10 0.12 0.17 0.19 0.24 0.26 0.25 0.21 0.22 0.17 0.16 0.18 0.19
0.00 0.01 0.00 0.00 0.01 0.02 0.03 0.03 0.06 0.16 0.19 0.07 0.01 0.01 0.01 0.14 0.22 0.28 0.36 0.43 0.64 0.60 0.52 0.49 0.46 0.40 0.40 0.37 0.24 0.21 0.21 0.23
0.00 0.00 0.00 0.00 0.00 0.00 0.01 0.04 0.13 0.52 0.75 0.56 0.27 0.16 0.13 0.26 0.38 0.61 0.87 0.82 0.65 0.53 0.46 0.30 0.24 0.22 0.17 0.14 0.16 0.19 0.21 0.26
0.00 0.00 0.00 0.00 0.00 0.00 0.01 0.04 0.29 0.44 0.52 0.54 0.38 0.39 0.51 0.82 0.98 0.89 0.76 0.48 0.28 0.16 0.11 0.09 0.08 0.08 0.08 0.09 0.09 0.12 0.14 0.16
0.00 0.00 0.00 0.00 0.00 0.00 0.01 0.01 0.06 0.22 0.14 0.15 0.25 0.28 0.23 0.28 0.22 0.23 0.19 0.18 0.16 0.15 0.15 0.13 0.10 0.09 0.09 0.10 0.11 0.13 0.15 0.15
0.00 0.00 0.00 0.00 0.00 0.00 0.00 0.00 0.00 0.04 0.02 0.04 0.09 0.14 0.14 0.15 0.14 0.12 0.16 0.18 0.19 0.20 0.18 0.15 0.14 0.13 0.13 0.15 0.13 0.13 0.12 0.13
0.00 0.00 0.00 0.01 0.00 0.00 0.00 0.00 0.00 0.02 0.07 0.05 0.06 0.08 0.08 0.07 0.06 0.07 0.08 0.13 0.13 0.14 0.13 0.13 0.11 0.12 0.24 0.18 0.13 0.11 0.16 0.16
0.00 0.00 0.00 0.01 0.05 0.04 0.00 0.00 0.00 0.02 0.04 0.05 0.04 0.04 0.03 0.02 0.02 0.03 0.04 0.09 0.12 0.14 0.11 0.10 0.10 0.14 0.27 0.16 0.17 0.08 0.08 0.12
0.00 0.00 0.00 0.00 0.01 0.04 0.04 0.01 0.00 0.00 0.02 0.03 0.03 0.02 0.01 0.02 0.02 0.03 0.03 0.03 0.05 0.06 0.07 0.07 0.08 0.15 0.22 0.12 0.13 0.08 0.09 0.14

GFSFLT1_prec_precacc24_099.txt.gz
Total_Precipitation_Accumulation
0.00 0.00 0.00 0.00 0.01 0.01 0.04 0.08 0.11 0.10 0.14 0.15 0.28 0.35 0.35 0.29 0.24 0.19 0.23 0.26 0.25 0.33 0.27 0.16 0.06 0.02 0.00 0.00 0.00 0.00 0.00 0.00
0.00 0.00 0.00 0.00 0.01 0.02 0.05 0.11 0.14 0.13 0.15 0.24 0.38 0.39 0.24 0.23 0.29 0.27 0.28 0.34 0.24 0.17 0.22 0.14 0.03 0.01 0.00 0.01 0.01 0.00 0.00 0.00
0.00 0.00 0.00 0.00 0.01 0.02 0.02 0.04 0.06 0.10 0.09 0.17 0.24 0.27 0.22 0.17 0.21 0.32 0.30 0.42 0.36 0.19 0.19 0.12 0.02 0.00 0.00 0.00 0.00 0.00 0.00 0.00
0.00 0.00 0.00 0.00 0.01 0.01 0.01 0.00 0.01 0.07 0.11 0.26 0.32 0.35 0.24 0.21 0.16 0.19 0.30 0.34 0.35 0.23 0.20 0.08 0.02 0.01 0.00 0.00 0.00 0.00 0.00 0.00
0.00 0.00 0.00 0.00 0.00 0.00 0.02 0.01 0.01 0.03 0.06 0.13 0.16 0.15 0.10 0.06 0.03 0.06 0.14 0.31 0.37 0.19 0.19 0.13 0.03 0.01 0.00 0.00 0.00 0.00 0.00 0.00
0.00 0.00 0.00 0.00 0.00 0.00 0.01 0.01 0.01 0.01 0.03 0.06 0.13 0.06 0.02 0.04 0.01 0.02 0.07 0.21 0.34 0.30 0.18 0.25 0.12 0.04 0.01 0.01 0.01 0.02 0.02 0.04
0.00 0.00 0.00 0.00 0.00 0.00 0.00 0.01 0.02 0.01 0.02 0.02 0.05 0.07 0.03 0.02 0.01 0.00 0.01 0.09 0.24 0.31 0.27 0.27 0.28 0.16 0.09 0.03 0.07 0.04 0.07 0.06
0.00 0.00 0.00 0.00 0.00 0.00 0.00 0.01 0.02 0.01 0.01 0.01 0.01 0.03 0.06 0.01 0.00 0.00 0.00 0.02 0.10 0.24 0.31 0.33 0.29 0.24 0.12 0.08 0.08 0.10 0.12 0.12
0.00 0.00 0.00 0.00 0.00 0.00 0.00 0.00 0.01 0.01 0.01 0.01 0.01 0.01 0.01 0.01 0.00 0.00 0.00 0.01 0.04 0.08 0.21 0.30 0.28 0.30 0.23 0.15 0.09 0.10 0.15 0.15
0.00 0.00 0.00 0.00 0.00 0.00 0.00 0.00 0.00 0.01 0.00 0.00 0.01 0.01 0.01 0.00 0.00 0.00 0.00 0.00 0.04 0.07 0.07 0.17 0.22 0.24 0.21 0.22 0.20 0.22 0.28 0.27
0.00 0.00 0.00 0.00 0.00 0.00 0.01 0.01 0.00 0.00 0.01 0.00 0.00 0.01 0.01 0.01 0.00 0.00 0.00 0.00 0.02 0.04 0.03 0.07 0.10 0.15 0.14 0.15 0.11 0.13 0.16 0.17
0.00 0.00 0.00 0.00 0.00 0.01 0.03 0.03 0.03 0.07 0.03 0.01 0.01 0.01 0.01 0.01 0.01 0.00 0.00 0.00 0.01 0.02 0.05 0.10 0.16 0.21 0.26 0.25 0.16 0.18 0.22 0.22
0.00 0.00 0.00 0.00 0.00 0.00 0.00 0.04 0.06 0.12 0.18 0.10 0.02 0.02 0.01 0.00 0.00 0.00 0.00 0.00 0.00 0.02 0.05 0.05 0.09 0.12 0.12 0.11 0.13 0.16 0.19 0.25
0.00 0.00 0.00 0.00 0.00 0.00 0.00 0.01 0.08 0.10 0.12 0.21 0.13 0.04 0.01 0.00 0.00 0.00 0.01 0.00 0.02 0.04 0.03 0.03 0.03 0.03 0.03 0.03 0.04 0.08 0.12 0.14
0.00 0.00 0.00 0.00 0.00 0.00 0.00 0.00 0.00 0.02 0.02 0.06 0.14 0.13 0.05 0.04 0.01 0.01 0.02 0.06 0.06 0.06 0.04 0.04 0.04 0.04 0.04 0.04 0.05 0.09 0.13 0.14
0.00 0.01 0.00 0.00 0.01 0.02 0.02 0.03 0.07 0.08 0.02 0.00 0.03 0.07 0.07 0.08 0.07 0.06 0.07 0.06 0.09 0.12 0.12 0.09 0.07 0.06 0.06 0.09 0.09 0.10 0.10 0.11
0.00 0.03 0.07 0.08 0.10 0.12 0.15 0.19 0.24 0.12 0.08 0.05 0.01 0.02 0.04 0.06 0.05 0.05 0.05 0.07 0.07 0.07 0.07 0.07 0.05 0.07 0.16 0.13 0.10 0.10 0.15 0.15
0.01 0.03 0.06 0.12 0.24 0.27 0.21 0.31 0.33 0.22 0.14 0.11 0.06 0.04 0.02 0.02 0.01 0.01 0.03 0.06 0.09 0.11 0.08 0.06 0.07 0.10 0.20 0.14 0.15 0.07 0.08 0.12
0.01 0.01 0.03 0.04 0.06 0.11 0.12 0.09 0.14 0.18 0.10 0.12 0.16 0.12 0.09 0.05 0.02 0.01 0.02 0.02 0.04 0.04 0.05 0.05 0.07 0.14 0.20 0.11 0.12 0.08 0.10 0.15

GFSFLT1_prec_precacc24_102.txt.gz
Total_Precipitation_Accumulation
0.00 0.00 0.00 0.00 0.01 0.01 0.01 0.04 0.05 0.05 0.07 0.09 0.19 0.29 0.32 0.29 0.25 0.19 0.24 0.28 0.27 0.36 0.36 0.44 0.48 0.40 0.10 0.07 0.05 0.01 0.00 0.00
0.00 0.00 0.00 0.00 0.01 0.02 0.01 0.08 0.09 0.05 0.10 0.16 0.27 0.33 0.22 0.22 0.30 0.29 0.30 0.38 0.28 0.21 0.30 0.30 0.38 0.26 0.06 0.03 0.05 0.02 0.00 0.00
0.00 0.00 0.00 0.00 0.01 0.02 0.02 0.03 0.05 0.08 0.08 0.14 0.17 0.25 0.20 0.17 0.21 0.35 0.33 0.47 0.42 0.24 0.24 0.19 0.22 0.15 0.04 0.02 0.02 0.00 0.00 0.00
0.00 0.00 0.00 0.00 0.01 0.01 0.01 0.00 0.01 0.07 0.11 0.23 0.30 0.33 0.22 0.20 0.15 0.20 0.35 0.43 0.49 0.47 0.34 0.20 0.10 0.05 0.02 0.01 0.01 0.00 0.00 0.00
0.00 0.00 0.00 0.00 0.00 0.00 0.02 0.01 0.01 0.03 0.06 0.13 0.16 0.15 0.09 0.05 0.03 0.06 0.16 0.41 0.58 0.36 0.45 0.35 0.18 0.04 0.01 0.00 0.00 0.00 0.00 0.00
0.00 0.00 0.00 0.00 0.00 0.00 0.01 0.01 0.01 0.01 0.03 0.06 0.13 0.06 0.02 0.04 0.01 0.02 0.08 0.23 0.50 0.56 0.26 0.33 0.18 0.05 0.01 0.01 0.01 0.02 0.02 0.03
0.00 0.00 0.00 0.00 0.00 0.00 0.00 0.01 0.02 0.01 0.02 0.02 0.05 0.07 0.03 0.02 0.01 0.00 0.01 0.09 0.25 0.39 0.43 0.31 0.32 0.24 0.10 0.02 0.05 0.03 0.06 0.05
0.00 0.00 0.00 0.00 0.00 0.00 0.00 0.01 0.02 0.02 0.02 0.01 0.01 0.03 0.06 0.01 0.00 0.00 0.00 0.02 0.10 0.24 0.34 0.45 0.42 0.38 0.25 0.12 0.06 0.05 0.06 0.08
0.00 0.00 0.00 0.00 0.00 0.00 0.00 0.00 0.01 0.01 0.01 0.01 0.01 0.01 0.01 0.01 0.00 0.00 0.00 0.01 0.04 0.09 0.24 0.32 0.40 0.55 0.46 0.27 0.10 0.04 0.05 0.03
0.00 0.00 0.00 0.00 0.00 0.00 0.00 0.00 0.00 0.01 0.01 0.01 0.01 0.01 0.01 0.00 0.00 0.00 0.00 0.00 0.04 0.07 0.09 0.24 0.36 0.49 0.44 0.35 0.26 0.14 0.08 0.06
0.00 0.00 0.00 0.00 0.00 0.00 0.00 0.00 0.00 0.00 0.01 0.01 0.00 0.01 0.01 0.01 0.00 0.00 0.00 0.00 0.02 0.05 0.03 0.08 0.15 0.24 0.26 0.24 0.23 0.23 0.19 0.13
0.00 0.00 0.00 0.00 0.00 0.00 0.01 0.01 0.00 0.01 0.01 0.01 0.01 0.01 0.01 0.01 0.01 0.00 0.00 0.00 0.00 0.01 0.01 0.02 0.07 0.11 0.16 0.18 0.13 0.17 0.20 0.17
0.00 0.00 0.00 0.00 0.00 0.00 0.00 0.01 0.02 0.02 0.03 0.03 0.01 0.00 0.00 0.00 0.00 0.00 0.00 0.00 0.00 0.00 0.00 0.01 0.03 0.08 0.12 0.12 0.12 0.15 0.16 0.20
0.00 0.00 0.00 0.00 0.00 0.00 0.00 0.00 0.06 0.08 0.03 0.10 0.05 0.01 0.00 0.00 0.00 0.00 0.00 0.00 0.00 0.00 0.00 0.01 0.03 0.05 0.05 0.04 0.04 0.06 0.08 0.07
0.01 0.02 0.00 0.00 0.00 0.00 0.01 0.04 0.08 0.08 0.02 0.02 0.03 0.02 0.02 0.00 0.00 0.01 0.01 0.00 0.01 0.03 0.03 0.03 0.04 0.03 0.03 0.03 0.02 0.02 0.03 0.02
0.01 0.04 0.04 0.03 0.03 0.07 0.10 0.13 0.18 0.15 0.05 0.01 0.01 0.01 0.01 0.01 0.02 0.03 0.03 0.02 0.01 0.01 0.05 0.05 0.06 0.05 0.03 0.04 0.02 0.02 0.03 0.04
0.01 0.06 0.15 0.17 0.20 0.17 0.20 0.29 0.42 0.25 0.15 0.11 0.03 0.00 0.01 0.02 0.02 0.04 0.04 0.03 0.02 0.01 0.01 0.01 0.03 0.03 0.08 0.07 0.05 0.06 0.09 0.09
0.03 0.04 0.12 0.19 0.35 0.37 0.30 0.44 0.52 0.40 0.29 0.21 0.12 0.06 0.02 0.02 0.01 0.01 0.02 0.05 0.05 0.05 0.02 0.02 0.03 0.05 0.12 0.08 0.10 0.05 0.06 0.09
0.07 0.03 0.04 0.06 0.09 0.14 0.18 0.21 0.28 0.24 0.16 0.17 0.21 0.13 0.08 0.05 0.02 0.02 0.02 0.02 0.02 0.03 0.03 0.03 0.04 0.09 0.14 0.08 0.08 0.07 0.09 0.13

GFSFLT1_prec_precacc24_105.txt.gz
Total_Precipitation_Accumulation
0.00 0.00 0.00 0.00 0.00 0.01 0.01 0.01 0.01 0.02 0.05 0.06 0.09 0.11 0.19 0.25 0.25 0.20 0.24 0.29 0.27 0.37 0.38 0.50 0.73 0.70 0.33 0.16 0.13 0.11 0.04 0.01
0.00 0.00 0.00 0.00 0.00 0.01 0.01 0.04 0.04 0.03 0.06 0.10 0.15 0.18 0.12 0.16 0.29 0.29 0.31 0.39 0.29 0.24 0.35 0.35 0.48 0.50 0.36 0.11 0.12 0.15 0.06 0.00
0.00 0.00 0.00 0.00 0.00 0.01 0.01 0.02 0.04 0.04 0.04 0.08 0.13 0.14 0.09 0.12 0.19 0.35 0.34 0.47 0.44 0.28 0.32 0.29 0.29 0.32 0.29 0.19 0.14 0.15 0.09 0.00
0.00 0.00 0.00 0.00 0.00 0.01 0.01 0.00 0.01 0.05 0.04 0.14 0.21 0.21 0.14 0.15 0.11 0.20 0.36 0.44 0.52 0.50 0.40 0.29 0.13 0.10 0.16 0.17 0.16 0.10 0.07 0.02
0.00 0.00 0.00 0.00 0.00 0.00 0.02 0.01 0.01 0.03 0.04 0.09 0.12 0.13 0.07 0.04 0.03 0.06 0.16 0.43 0.62 0.39 0.53 0.51 0.36 0.12 0.13 0.15 0.13 0.09 0.08 0.05
0.00 0.00 0.00 0.00 0.00 0.00 0.01 0.01 0.01 0.01 0.03 0.06 0.12 0.06 0.02 0.04 0.01 0.02 0.08 0.25 0.52 0.61 0.29 0.45 0.37 0.17 0.09 0.10 0.10 0.10 0.06 0.07
0.00 0.00 0.00 0.00 0.00 0.00 0.00 0.01 0.02 0.01 0.02 0.02 0.05 0.07 0.03 0.02 0.01 0.00 0.01 0.09 0.28 0.44 0.59 0.40 0.39 0.29 0.13 0.04 0.08 0.05 0.07 0.05
0.00 0.00 0.00 0.00 0.00 0.00 0.00 0.01 0.02 0.02 0.02 0.01 0.01 0.03 0.06 0.01 0.00 0.00 0.00 0.02 0.11 0.27 0.38 0.53 0.49 0.43 0.26 0.13 0.08 0.06 0.05 0.07
0.00 0.00 0.00 0.00 0.00 0.00 0.00 0.00 0.01 0.02 0.01 0.01 0.01 0.01 0.01 0.01 0.00 0.00 0.00 0.01 0.04 0.09 0.25 0.33 0.42 0.65 0.54 0.30 0.12 0.05 0.06 0.03
0.00 0.00 0.00 0.00 0.00 0.00 0.00 0.00 0.01 0.01 0.01 0.01 0.01 0.01 0.01 0.00 0.00 0.00 0.00 0.00 0.04 0.07 0.10 0.24 0.36 0.53 0.57 0.54 0.37 0.17 0.11 0.10
0.00 0.00 0.00 0.00 0.00 0.00 0.00 0.00 0.00 0.00 0.01 0.01 0.00 0.01 0.01 0.01 0.00 0.00 0.00 0.00 0.02 0.05 0.03 0.09 0.16 0.28 0.30 0.33 0.34 0.28 0.23 0.17
0.00 0.00 0.00 0.00 0.00 0.00 0.00 0.00 0.00 0.00 0.00 0.01 0.01 0.01 0.01 0.01 0.01 0.00 0.00 0.00 0.00 0.01 0.01 0.02 0.07 0.13 0.21 0.22 0.12 0.13 0.17 0.19
0.00 0.00 0.00 0.00 0.00 0.00 0.00 0.00 0.01 0.01 0.02 0.01 0.01 0.00 0.00 0.00 0.00 0.00 0.00 0.00 0.00 0.00 0.00 0.00 0.02 0.05 0.09 0.10 0.10 0.13 0.11 0.11
0.03 0.03 0.02 0.03 0.02 0.00 0.00 0.01 0.05 0.06 0.02 0.02 0.01 0.00 0.00 0.00 0.00 0.00 0.00 0.00 0.00 0.00 0.00 0.00 0.01 0.03 0.03 0.04 0.05 0.06 0.09 0.08
0.20 0.22 0.12 0.12 0.09 0.02 0.02 0.05 0.09 0.09 0.03 0.01 0.02 0.01 0.00 0.00 0.00 0.00 0.01 0.00 0.00 0.00 0.00 0.00 0.00 0.01 0.02 0.02 0.02 0.02 0.03 0.04
0.21 0.60 0.40 0.15 0.12 0.13 0.13 0.14 0.23 0.22 0.10 0.03 0.01 0.01 0.00 0.00 0.00 0.00 0.00 0.01 0.00 0.00 0.00 0.00 0.01 0.01 0.02 0.03 0.02 0.02 0.02 0.02
0.20 0.30 0.46 0.28 0.27 0.25 0.32 0.38 0.52 0.36 0.23 0.19 0.06 0.01 0.00 0.00 0.00 0.00 0.01 0.02 0.01 0.01 0.00 0.00 0.00 0.00 0.02 0.03 0.04 0.06 0.08 0.07
0.22 0.22 0.40 0.29 0.41 0.46 0.41 0.59 0.66 0.51 0.38 0.29 0.15 0.08 0.02 0.01 0.00 0.00 0.01 0.03 0.03 0.03 0.01 0.01 0.01 0.03 0.05 0.05 0.08 0.05 0.05 0.09
0.25 0.20 0.27 0.26 0.13 0.17 0.23 0.32 0.44 0.35 0.24 0.24 0.23 0.14 0.09 0.05 0.02 0.02 0.01 0.01 0.01 0.02 0.01 0.02 0.02 0.05 0.09 0.06 0.06 0.06 0.08 0.12